AEA74H EDDH-EPKK

Flight info

Callsign AEA74H
Flight time 1h 16m
Altitude 31000
Route AMLUH2G/33 AMLUH L619 BUMIL DCT ERNUD M748 BOLBO L986 LASIS T714 MOFKE
Aircraft B738/M-SDE2E3FGHIRWXY/LB1

Departure

Time 2026-04-30 17:44
Airport Hamburg Helmut Schmidt Airport (EDDH)

Arrival

Time 2026-04-30 19:00
Airport Kraków John Paul II International Airport (EPKK)
Time Latitude Longitude Altitude Speed Heading
2026-04-30 17:39 53.63164 10.00195 50 ft 4 kts 180°
2026-04-30 17:41 53.62900 9.99935 48 ft 4 kts 243°
2026-04-30 17:42 53.62872 9.99730 48 ft 0 kts 303°
2026-04-30 17:42 53.62904 9.99705 48 ft 10 kts 335°
2026-04-30 17:43 53.63824 9.98922 47 ft 135 kts 332°
2026-04-30 17:44 53.66994 9.96546 1477 ft 175 kts 343°
2026-04-30 17:44 53.70919 9.94676 2915 ft 208 kts
2026-04-30 17:46 53.73901 10.04863 5465 ft 239 kts 111°
2026-04-30 17:47 53.69652 10.13149 8008 ft 240 kts 131°
2026-04-30 17:48 53.65255 10.22852 9758 ft 275 kts 125°
2026-04-30 17:48 53.61463 10.30779 11109 ft 318 kts 126°
2026-04-30 17:49 53.55175 10.43520 12595 ft 372 kts 127°
2026-04-30 17:50 53.48423 10.57006 15064 ft 386 kts 127°
2026-04-30 17:51 53.43168 10.67460 16739 ft 396 kts 127°
2026-04-30 17:52 53.37756 10.78183 18337 ft 407 kts 126°
2026-04-30 17:53 53.28425 10.96563 20586 ft 424 kts 126°
2026-04-30 17:54 53.20838 11.12033 22141 ft 437 kts 122°
2026-04-30 17:55 53.13708 11.28689 23646 ft 449 kts 121°
2026-04-30 17:56 53.06280 11.45678 24955 ft 458 kts 122°
2026-04-30 17:57 53.00582 11.58568 25834 ft 465 kts 122°
2026-04-30 17:58 52.94793 11.71600 26659 ft 471 kts 122°
2026-04-30 17:59 52.87004 11.89027 28071 ft 470 kts 122°
2026-04-30 18:00 52.79230 12.06308 29581 ft 467 kts 122°
2026-04-30 18:00 52.73421 12.19145 30701 ft 464 kts 122°
2026-04-30 18:01 52.69579 12.27600 31336 ft 462 kts 122°
2026-04-30 18:02 52.57959 12.53003 31442 ft 461 kts 122°
2026-04-30 18:03 52.52153 12.65605 32220 ft 460 kts 122°
2026-04-30 18:04 52.46430 12.77959 33048 ft 460 kts 122°
2026-04-30 18:05 52.38697 12.94564 34183 ft 457 kts 122°
2026-04-30 18:06 52.30998 13.10987 35049 ft 457 kts 122°
2026-04-30 18:07 52.23261 13.27387 35875 ft 455 kts 122°
2026-04-30 18:08 52.17456 13.39620 36483 ft 454 kts 122°
2026-04-30 18:09 52.09736 13.55804 37218 ft 454 kts 122°
2026-04-30 18:10 52.01965 13.71990 37417 ft 455 kts 122°
2026-04-30 18:11 51.88393 14.00009 37422 ft 451 kts 121°
2026-04-30 18:13 51.78684 14.19871 37422 ft 449 kts 122°
2026-04-30 18:14 51.68980 14.39571 37423 ft 450 kts 122°
2026-04-30 18:15 51.57233 14.63217 37425 ft 451 kts 122°
2026-04-30 18:16 51.49382 14.78904 37425 ft 452 kts 122°
2026-04-30 18:17 51.45433 14.86766 37416 ft 452 kts 122°
2026-04-30 18:18 51.39912 14.98874 37419 ft 439 kts 108°
2026-04-30 18:18 51.37603 15.07761 37411 ft 425 kts 105°
2026-04-30 18:19 51.35414 15.16443 37412 ft 419 kts 105°
2026-04-30 18:19 51.33228 15.24972 37319 ft 413 kts 105°
2026-04-30 18:19 51.32133 15.29188 36853 ft 410 kts 105°
2026-04-30 18:20 51.31058 15.33404 36238 ft 410 kts 103°
2026-04-30 18:20 51.29956 15.37635 35604 ft 418 kts 110°
2026-04-30 18:20 51.28198 15.41463 34976 ft 440 kts 127°
2026-04-30 18:20 51.25686 15.44433 34380 ft 461 kts 144°
2026-04-30 18:21 51.22619 15.46227 33723 ft 480 kts 162°
2026-04-30 18:21 51.19274 15.46755 33505 ft 487 kts 172°
2026-04-30 18:21 51.15873 15.46803 33459 ft 491 kts 174°
2026-04-30 18:22 51.09159 15.47681 33428 ft 478 kts 154°
2026-04-30 18:22 51.00151 15.53938 33421 ft 468 kts 146°
2026-04-30 18:23 50.94288 15.58370 33421 ft 466 kts 145°
2026-04-30 18:23 50.88566 15.63004 33389 ft 446 kts 131°
2026-04-30 18:24 50.85563 15.70638 33435 ft 394 kts 89°
2026-04-30 18:24 50.85614 15.74873 33460 ft 383 kts 78°
2026-04-30 18:25 50.85465 15.83244 32882 ft 384 kts 88°
2026-04-30 18:25 50.84654 15.91703 31341 ft 395 kts 91°
2026-04-30 18:25 50.84166 15.96002 30583 ft 399 kts 92°
2026-04-30 18:26 50.83144 16.04698 28762 ft 405 kts 92°
2026-04-30 18:26 50.82627 16.09098 27766 ft 410 kts 92°
2026-04-30 18:26 50.82105 16.13561 26692 ft 416 kts 93°
2026-04-30 18:27 50.81051 16.22559 25107 ft 417 kts 93°
2026-04-30 18:27 50.80522 16.27030 24520 ft 412 kts 93°
2026-04-30 18:28 50.79476 16.35877 23124 ft 407 kts 94°
2026-04-30 18:28 50.78959 16.40250 22442 ft 404 kts 94°
2026-04-30 18:28 50.77932 16.48909 21571 ft 402 kts 94°
2026-04-30 18:29 50.77416 16.53262 21459 ft 402 kts 94°
2026-04-30 18:29 50.75872 16.66127 21422 ft 400 kts 94°
2026-04-30 18:30 50.74999 16.73349 21410 ft 399 kts 94°
2026-04-30 18:30 50.73781 16.83355 21413 ft 399 kts 94°
2026-04-30 18:31 50.73254 16.87664 21422 ft 402 kts 94°
2026-04-30 18:31 50.72364 16.94928 21419 ft 407 kts 95°
2026-04-30 18:32 50.71283 17.03651 21408 ft 404 kts 95°
2026-04-30 18:32 50.70742 17.07994 21413 ft 404 kts 95°
2026-04-30 18:32 50.69657 17.16678 21410 ft 403 kts 95°
2026-04-30 18:33 50.68936 17.22429 21406 ft 404 kts 95°
2026-04-30 18:33 50.68019 17.29703 21412 ft 404 kts 95°
2026-04-30 18:33 50.67468 17.34052 21411 ft 404 kts 95°
2026-04-30 18:34 50.66916 17.38391 21414 ft 404 kts 95°
2026-04-30 18:34 50.65807 17.47084 21407 ft 405 kts 95°
2026-04-30 18:34 50.65249 17.51435 21408 ft 405 kts 95°
2026-04-30 18:35 50.64696 17.55729 21411 ft 405 kts 95°
2026-04-30 18:35 50.64134 17.60083 21407 ft 405 kts 95°
2026-04-30 18:35 50.63572 17.64432 21403 ft 405 kts 95°
2026-04-30 18:36 50.62444 17.73097 21242 ft 402 kts 95°
2026-04-30 18:36 50.61880 17.77417 20983 ft 403 kts 95°
2026-04-30 18:36 50.60750 17.86038 20487 ft 401 kts 95°
2026-04-30 18:37 50.60187 17.90322 20232 ft 399 kts 95°
2026-04-30 18:37 50.59630 17.94543 19997 ft 398 kts 96°
2026-04-30 18:37 50.59066 17.98792 19755 ft 397 kts 96°
2026-04-30 18:37 50.58545 18.03049 19502 ft 394 kts 92°
2026-04-30 18:38 50.58311 18.07320 19266 ft 390 kts 87°
2026-04-30 18:38 50.58223 18.11565 19032 ft 389 kts 86°
2026-04-30 18:38 50.58163 18.15824 18795 ft 389 kts 86°
2026-04-30 18:38 50.58088 18.20074 18541 ft 389 kts 86°
2026-04-30 18:39 50.57988 18.24328 18264 ft 389 kts 87°
2026-04-30 18:39 50.57871 18.28581 17992 ft 389 kts 88°
2026-04-30 18:39 50.57693 18.32821 17727 ft 391 kts 92°
2026-04-30 18:39 50.57083 18.36962 17464 ft 397 kts 103°
2026-04-30 18:40 50.56119 18.41032 17211 ft 397 kts 105°
2026-04-30 18:40 50.55134 18.45086 16943 ft 395 kts 105°
2026-04-30 18:40 50.54158 18.49111 16689 ft 394 kts 105°
2026-04-30 18:40 50.53189 18.53128 16429 ft 392 kts 105°
2026-04-30 18:41 50.52230 18.57135 16173 ft 391 kts 105°
2026-04-30 18:41 50.51277 18.61127 15920 ft 389 kts 105°
2026-04-30 18:41 50.50332 18.65100 15669 ft 388 kts 105°
2026-04-30 18:41 50.49389 18.69060 15424 ft 387 kts 105°
2026-04-30 18:42 50.48462 18.72952 15168 ft 385 kts 105°
2026-04-30 18:42 50.46588 18.80803 14689 ft 383 kts 105°
2026-04-30 18:42 50.45652 18.84713 14442 ft 382 kts 105°
2026-04-30 18:45 50.36404 19.22978 11841 ft 370 kts 107°
2026-04-30 18:45 50.35488 19.26731 11587 ft 369 kts 107°
2026-04-30 18:45 50.34571 19.30482 11340 ft 368 kts 107°
2026-04-30 18:46 50.33658 19.34211 11091 ft 367 kts 107°
2026-04-30 18:46 50.32757 19.37885 10852 ft 366 kts 107°
2026-04-30 18:46 50.31844 19.41603 10606 ft 366 kts 107°
2026-04-30 18:46 50.30931 19.45315 10368 ft 365 kts 108°
2026-04-30 18:47 50.30022 19.48999 10099 ft 360 kts 108°
2026-04-30 18:47 50.29130 19.52609 9817 ft 352 kts 108°
2026-04-30 18:47 50.28256 19.56140 9546 ft 344 kts 108°
2026-04-30 18:47 50.27401 19.59585 9271 ft 335 kts 108°
2026-04-30 18:48 50.26571 19.62931 9003 ft 326 kts 108°
2026-04-30 18:48 50.25771 19.66156 8734 ft 319 kts 108°
2026-04-30 18:48 50.24977 19.69350 8471 ft 312 kts 108°
2026-04-30 18:48 50.24200 19.72476 8215 ft 306 kts 108°
2026-04-30 18:49 50.23441 19.75521 8058 ft 296 kts 108°
2026-04-30 18:49 50.22705 19.78472 7939 ft 287 kts 108°
2026-04-30 18:49 50.21992 19.81333 7786 ft 279 kts 108°
2026-04-30 18:49 50.21292 19.84134 7567 ft 274 kts 108°
2026-04-30 18:50 50.20612 19.86844 7625 ft 264 kts 108°
2026-04-30 18:50 50.19943 19.89506 7637 ft 265 kts 108°
2026-04-30 18:50 50.19272 19.92223 7363 ft 270 kts 104°
2026-04-30 18:50 50.19108 19.95030 7106 ft 261 kts 79°
2026-04-30 18:51 50.19456 19.97777 6875 ft 257 kts 75°
2026-04-30 18:51 50.19839 20.00486 6615 ft 254 kts 75°
2026-04-30 18:51 50.20211 20.03173 6347 ft 253 kts 75°
2026-04-30 18:51 50.20576 20.05845 6086 ft 251 kts 75°
2026-04-30 18:52 50.20938 20.08498 5847 ft 248 kts 75°
2026-04-30 18:52 50.21285 20.11074 5798 ft 238 kts 75°
2026-04-30 18:52 50.21623 20.13586 5564 ft 236 kts 75°
2026-04-30 18:52 50.21778 20.16136 5278 ft 241 kts 97°
2026-04-30 18:53 50.21077 20.18457 5053 ft 244 kts 131°
2026-04-30 18:53 50.19655 20.19863 5016 ft 245 kts 161°
2026-04-30 18:53 50.18010 20.20530 4997 ft 243 kts 168°
2026-04-30 18:53 50.16342 20.20962 4980 ft 245 kts 181°
2026-04-30 18:54 50.14758 20.20171 4998 ft 241 kts 221°
2026-04-30 18:54 50.13805 20.18098 5012 ft 236 kts 251°
2026-04-30 18:54 50.13220 20.15699 4997 ft 237 kts 253°
2026-04-30 18:54 50.12713 20.13299 4990 ft 226 kts 258°
2026-04-30 18:55 50.12339 20.10993 4848 ft 215 kts 261°
2026-04-30 18:55 50.11710 20.06562 4291 ft 206 kts 261°
2026-04-30 18:55 50.11408 20.04417 4020 ft 200 kts 261°
2026-04-30 18:56 50.10809 20.00161 3471 ft 203 kts 261°
2026-04-30 18:56 50.10504 19.98003 3194 ft 202 kts 261°
2026-04-30 18:56 50.10210 19.95923 2902 ft 191 kts 261°
2026-04-30 18:57 50.09672 19.92095 2412 ft 170 kts 261°
2026-04-30 18:57 50.09430 19.90369 2192 ft 158 kts 261°
2026-04-30 18:57 50.09209 19.88790 2032 ft 143 kts 261°
2026-04-30 18:58 50.08839 19.86053 1429 ft 131 kts 259°
2026-04-30 18:58 50.08640 19.84701 1364 ft 118 kts 259°
2026-04-30 18:58 50.08454 19.83409 1191 ft 129 kts 260°
2026-04-30 18:59 50.08074 19.80667 927 ft 126 kts 258°
2026-04-30 19:00 50.07661 19.78109 793 ft 9 kts 178°
2026-04-30 19:00 50.07625 19.78109 794 ft 0 kts 182°
2026-04-30 19:02 50.07478 19.78122 794 ft 12 kts 133°
2026-04-30 19:02 50.07511 19.78433 793 ft 18 kts 80°
2026-04-30 19:03 50.07578 19.78930 791 ft 30 kts 78°
2026-04-30 19:03 50.07673 19.79618 789 ft 30 kts 76°
2026-04-30 19:04 50.07672 19.79966 788 ft 14 kts 178°
2026-04-30 19:04 50.07474 19.79948 788 ft 17 kts 181°
2026-04-30 19:05 50.07367 19.80098 787 ft 11 kts 111°
2026-04-30 19:05 50.07307 19.80136 787 ft 0 kts 173°